Weather History for Northway, AK

Change the Weather History Date:

Saturday, November 3, 2012

  Actual Average Record
Temperature  
Mean Temperature 2 °F -  
Max Temperature 10 °F 13 °F 32 °F (1962)
Min Temperature -4 °F -3 °F -33 °F (1975)
Degree Days  
Heating Degree Days 62    
Moisture  
Dew Point 0 °F    
Average Humidity 83    
Maximum Humidity 87    
Minimum Humidity 79    
Precipitation  
Precipitation 0.00 in - - ()
Snow  
Snow 0.00 in - - ()
Snow Depth 6.00 in    
Sea Level Pressure  
Sea Level Pressure 29.70 in    
Wind  
Wind Speed 3 mph (ESE)    
Max Wind Speed 8 mph    
Max Gust Speed -    
Visibility 8 miles    
Events Snow    
Averages and records for this station are not official NWS values.
T = Trace of Precipitation, MM = Missing Value Source: NWS Daily Summary

Daily Weather History Graph

Daily Weather History Graph

Search for Another Location

Airport:

Trip Planner

Search our weather history database for the weather conditions in past years. The results will help you decide how hot, cold, wet, or windy it might be!

Date:

Astronomy

Nov. 03, 2012 Rise Set
Actual Time 9:12 AM AKDT 5:09 PM AKDT
Civil Twilight 8:20 AM AKDT 6:00 PM AKDT
Nautical Twilight 7:25 AM AKDT 6:55 PM AKDT
Astronomical Twilight 6:32 AM AKDT 7:48 PM AKDT
Moon 8:22 PM AKDT (11/3) 2:01 PM AKDT (11/3)
Length of Visible Light 9h 39m
Length of Day
7h 56m
Waning Gibbous, 79% of the Moon is Illuminated
Nov 3
Waning Gibbous
Nov 6
Last Quarter
Nov 13
New
Nov 20
First Quarter
Nov 28
Full

Hourly Weather History & Observations

Time (AKDT) Temp. Windchill Dew Point Humidity Pressure Visibility Wind Dir Wind Speed Gust Speed Precip Events Conditions
12:53 AM 7.0 °F 0.1 °F 3.0 °F 84% 29.71 in 6.0 mi East 3.5 mph - 0.00 in Snow Light Snow
1:53 AM 8.1 °F -2.0 °F 3.9 °F 83% 29.71 in 4.0 mi East 5.8 mph - 0.00 in Snow Light Snow
2:53 AM 8.1 °F -4.3 °F 3.9 °F 83% 29.70 in 4.0 mi ESE 8.1 mph - 0.00 in Snow Light Snow
3:53 AM 8.1 °F -2.0 °F 3.9 °F 83% 29.70 in 8.0 mi East 5.8 mph - 0.00 in Snow Light Snow
3:57 AM 8.6 °F -1.3 °F 3.2 °F 79% 29.54 in 2.5 mi ESE 5.8 mph - 0.00 in Snow Light Snow
4:06 AM 8.6 °F -1.3 °F 3.2 °F 79% 29.54 in 2.0 mi ESE 5.8 mph - 0.00 in Snow Light Snow
4:17 AM 8.6 °F -1.3 °F 3.2 °F 79% 29.54 in 3.0 mi ESE 5.8 mph - 0.00 in Snow Light Snow
4:29 AM 8.6 °F -3.7 °F 3.2 °F 79% 29.53 in 5.0 mi ESE 8.1 mph - 0.00 in Snow Light Snow
4:53 AM 8.1 °F -2.0 °F 3.9 °F 83% 29.70 in 10.0 mi ESE 5.8 mph - 0.00 in   Mostly Cloudy
5:53 AM 8.1 °F 1.4 °F 5.0 °F 87% 29.70 in 10.0 mi ESE 3.5 mph - N/A   Overcast
6:53 AM 7.0 °F - 3.9 °F 87% 29.71 in 10.0 mi Calm Calm - N/A   Mostly Cloudy
7:53 AM 3.0 °F - -0.0 °F 87% 29.71 in 10.0 mi Calm Calm - N/A   Mostly Cloudy
8:53 AM -2.0 °F - -6.0 °F 83% 29.73 in 10.0 mi Calm Calm - N/A   Mostly Cloudy
9:53 AM -4.0 °F - -8.0 °F 83% 29.75 in 10.0 mi Calm Calm - N/A   Mostly Cloudy
10:53 AM 1.0 °F - -2.0 °F 87% 29.75 in 10.0 mi Calm Calm - N/A   Scattered Clouds
11:53 AM 7.0 °F - 3.0 °F 84% 29.75 in 10.0 mi Calm Calm - N/A   Scattered Clouds
12:53 PM 7.0 °F 0.1 °F 3.0 °F 84% 29.74 in 10.0 mi WSW 3.5 mph - N/A   Scattered Clouds
1:53 PM 9.0 °F 2.4 °F 3.9 °F 80% 29.73 in 10.0 mi Variable 3.5 mph - N/A   Scattered Clouds
2:53 PM 8.1 °F - 3.9 °F 83% 29.73 in 10.0 mi Calm Calm - N/A   Scattered Clouds
3:53 PM 8.1 °F - 3.9 °F 83% 29.73 in 10.0 mi Calm Calm - N/A   Scattered Clouds
4:53 PM 3.9 °F - -0.0 °F 84% 29.74 in 10.0 mi Calm Calm - N/A   Scattered Clouds
5:53 PM 1.9 °F - -2.0 °F 83% 29.74 in 10.0 mi Calm Calm - N/A   Mostly Cloudy
6:53 PM -0.0 °F - -4.0 °F 83% 29.74 in 10.0 mi Calm Calm - N/A   Scattered Clouds
7:53 PM -4.0 °F - -8.0 °F 83% 29.76 in 10.0 mi Calm Calm - N/A   Scattered Clouds
8:53 PM -2.9 °F - -7.1 °F 82% 29.77 in 10.0 mi Calm Calm - N/A   Scattered Clouds
9:53 PM -2.0 °F - -6.0 °F 83% 29.77 in 9.0 mi Calm Calm - 0.00 in Snow Light Snow
10:18 PM -0.4 °F - -4.0 °F 85% 29.56 in 8.0 mi Calm Calm - 0.00 in Snow Light Snow
10:53 PM 1.9 °F - -2.0 °F 83% 29.74 in 8.0 mi Calm Calm - 0.00 in Snow Light Snow
11:53 PM 3.0 °F -4.4 °F -0.9 °F 84% 29.73 in 8.0 mi ENE 3.5 mph - 0.00 in Snow Light Snow